• In Hungary
  • List of Countries
  • For 7 days
  • Water Temperature
  • Satellite Maps
  • Weather Map
  • News
  • Weather Widgets
  • user-avatar
    Login

    Hourly Weather Vidin

    Today, 16 December, Saturday

    Time Temperature Precipitation Wind Pressure Humidity
    00:00 +7°C° 0 mm 2 mps 749 mmHg 86%
    01:00 +7°C° 0 mm 2 mps 749 mmHg 86%
    02:00 +8°C° 0 mm 2 mps 747 mmHg 86%
    03:00 +8°C° 0 mm 2 mps 747 mmHg 87%
    04:00 +8°C° 0 mm 2 mps 747 mmHg 87%
    05:00 +8°C° 0 mm 2 mps 747 mmHg 87%
    06:00 +8°C° 0 mm 2 mps 747 mmHg 86%
    07:00 +8°C° 0 mm 2 mps 747 mmHg 86%
    08:00 +8°C° 0 mm 2 mps 747 mmHg 86%
    09:00 +9°C° 0.1 mm 2 mps 748 mmHg 82%
    10:00 +10°C° 0.1 mm 2 mps 748 mmHg 78%
    11:00 +12°C° 0.1 mm 2 mps 749 mmHg 75%
    12:00 +10°C° 0.4 mm 2 mps 749 mmHg 77%
    13:00 +10°C° 0.4 mm 3 mps 750 mmHg 79%
    14:00 +10°C° 0.4 mm 3 mps 750 mmHg 81%
    15:00 +9°C° 0.7 mm 3 mps 751 mmHg 81%
    16:00 +9°C° 0.7 mm 3 mps 751 mmHg 81%
    17:00 +8°C° 0.7 mm 3 mps 752 mmHg 81%
    18:00 +8°C° 0.6 mm 3 mps 752 mmHg 80%
    19:00 +7°C° 0.6 mm 3 mps 753 mmHg 80%
    20:00 +7°C° 0.6 mm 3 mps 753 mmHg 80%
    21:00 +7°C° 0.4 mm 3 mps 754 mmHg 80%
    22:00 +7°C° 0.4 mm 2 mps 754 mmHg 81%
    23:00 +7°C° 0.4 mm 2 mps 755 mmHg 81%

    Tomorrow, 17 December, Sunday

    Time Temperature Precipitation Wind Pressure Humidity
    00:00 +6°C° 0.5 mm 2 mps 755 mmHg 82%
    01:00 +6°C° 0.5 mm 2 mps 755 mmHg 82%
    02:00 +6°C° 0.5 mm 2 mps 755 mmHg 82%
    03:00 +6°C° 0.3 mm 2 mps 755 mmHg 83%
    04:00 +6°C° 0.3 mm 2 mps 755 mmHg 83%
    05:00 +6°C° 0.3 mm 2 mps 755 mmHg 83%
    06:00 +5°C° 0.2 mm 2 mps 756 mmHg 83%
    07:00 +5°C° 0.2 mm 2 mps 756 mmHg 82%
    08:00 +5°C° 0.2 mm 2 mps 756 mmHg 81%
    09:00 +5°C° 0.1 mm 2 mps 757 mmHg 78%
    10:00 +6°C° 0.1 mm 2 mps 757 mmHg 75%
    11:00 +5°C° 0.1 mm 3 mps 757 mmHg 72%
    12:00 +5°C° 0.2 mm 3 mps 757 mmHg 71%
    13:00 +7°C° 0.2 mm 3 mps 757 mmHg 69%
    14:00 +7°C° 0.2 mm 3 mps 757 mmHg 68%
    15:00 +5°C° 0.3 mm 3 mps 758 mmHg 71%
    16:00 +5°C° 0.3 mm 3 mps 758 mmHg 73%
    17:00 +4°C° 0.3 mm 3 mps 758 mmHg 75%
    18:00 +4°C° 0.3 mm 4 mps 759 mmHg 76%
    19:00 +4°C° 0.3 mm 4 mps 759 mmHg 76%
    20:00 +4°C° 0.3 mm 4 mps 760 mmHg 76%
    21:00 +4°C° 0.2 mm 4 mps 760 mmHg 76%
    22:00 +3°C° 0.2 mm 4 mps 761 mmHg 76%
    23:00 +3°C° 0.2 mm 4 mps 761 mmHg 76%

    Day after tomorrow, 18 December, Monday

    Time Temperature Precipitation Wind Pressure Humidity
    00:00 +3°C° 0.1 mm 4 mps 762 mmHg 76%
    01:00 +3°C° 0.1 mm 4 mps 762 mmHg 77%
    02:00 +1°C° 0.1 mm 4 mps 762 mmHg 77%
    03:00 +1°C° 0 mm 4 mps 762 mmHg 78%
    04:00 +2°C° 0 mm 3 mps 762 mmHg 79%
    05:00 +1°C° 0 mm 3 mps 762 mmHg 80%
    06:00 +1°C° 0 mm 3 mps 762 mmHg 80%
    07:00 +1°C° 0 mm 3 mps 762 mmHg 80%
    08:00 +1°C° 0 mm 3 mps 763 mmHg 80%
    09:00 +2°C° 0.1 mm 3 mps 763 mmHg 77%
    10:00 +2°C° 0.1 mm 3 mps 763 mmHg 74%
    11:00 +3°C° 0.1 mm 4 mps 763 mmHg 71%
    12:00 +3°C° 0.2 mm 4 mps 763 mmHg 71%
    13:00 +3°C° 0.2 mm 4 mps 763 mmHg 71%
    14:00 +3°C° 0.2 mm 4 mps 762 mmHg 71%
    15:00 +3°C° 0.1 mm 3 mps 762 mmHg 73%
    16:00 +2°C° 0.1 mm 3 mps 763 mmHg 75%
    17:00 +2°C° 0.1 mm 3 mps 763 mmHg 77%
    18:00 +2°C° 0.1 mm 3 mps 763 mmHg 78%
    19:00 +2°C° 0.1 mm 3 mps 763 mmHg 79%
    20:00 +1°C° 0.1 mm 3 mps 764 mmHg 80%
    21:00 +1°C° 0.1 mm 3 mps 764 mmHg 80%
    22:00 +1°C° 0.1 mm 3 mps 765 mmHg 81%
    23:00 +1°C° 0.1 mm 3 mps 765 mmHg 81%

    19 December, Tuesday

    Time Temperature Precipitation Wind Pressure Humidity
    00:00 +2°C° 0.2 mm 2 mps 765 mmHg 82%
    01:00 +2°C° 0.2 mm 2 mps 766 mmHg 83%
    02:00 +2°C° 0.2 mm 2 mps 766 mmHg 83%
    03:00 +2°C° 0.2 mm 2 mps 766 mmHg 84%
    04:00 +2°C° 0.2 mm 2 mps 766 mmHg 85%
    05:00 +2°C° 0.2 mm 2 mps 767 mmHg 85%
    06:00 +2°C° 0.2 mm 2 mps 767 mmHg 86%
    07:00 +1°C° 0.2 mm 2 mps 768 mmHg 86%
    08:00 +1°C° 0.2 mm 2 mps 768 mmHg 87%
    09:00 +2°C° 0.2 mm 2 mps 769 mmHg 86%
    10:00 +2°C° 0.2 mm 2 mps 769 mmHg 86%
    11:00 +2°C° 0.2 mm 2 mps 770 mmHg 85%
    12:00 +2°C° 0.2 mm 2 mps 770 mmHg 85%
    13:00 +2°C° 0.2 mm 2 mps 770 mmHg 85%
    14:00 +3°C° 0.2 mm 2 mps 770 mmHg 85%
    15:00 +2°C° 0.2 mm 2 mps 770 mmHg 86%
    16:00 +3°C° 0.2 mm 1 mps 770 mmHg 88%
    17:00 +3°C° 0.2 mm 1 mps 770 mmHg 90%
    18:00 +2°C° 0.2 mm 1 mps 770 mmHg 91%
    19:00 +2°C° 0.2 mm 1 mps 771 mmHg 91%
    20:00 +2°C° 0.2 mm 1 mps 771 mmHg 92%
    21:00 +2°C° 0.1 mm 1 mps 772 mmHg 92%
    22:00 +2°C° 0.1 mm 1 mps 772 mmHg 92%
    23:00 +2°C° 0.1 mm 1 mps 772 mmHg 92%

    20 December, Wednesday

    Time Temperature Precipitation Wind Pressure Humidity
    00:00 +1°C° 0.1 mm 1 mps 772 mmHg 92%
    01:00 +1°C° 0.1 mm 1 mps 772 mmHg 91%
    02:00 +1°C° 0.1 mm 1 mps 773 mmHg 91%
    03:00 +1°C° 0 mm 1 mps 772 mmHg 90%
    04:00 +1°C° 0 mm 1 mps 772 mmHg 90%
    05:00 +1°C° 0 mm 1 mps 772 mmHg 89%
    06:00 -2°C° 0 mm 2 mps 773 mmHg 88%
    07:00 -2°C° 0 mm 2 mps 773 mmHg 87%
    08:00 -2°C° 0 mm 2 mps 773 mmHg 86%
    09:00 -1°C° 0 mm 2 mps 773 mmHg 82%
    10:00 -1°C° 0 mm 3 mps 773 mmHg 78%
    11:00 0°C° 0 mm 3 mps 773 mmHg 73%
    12:00 -1°C° 0 mm 4 mps 773 mmHg 71%
    13:00 0°C° 0 mm 4 mps 772 mmHg 68%
    14:00 0°C° 0 mm 4 mps 771 mmHg 66%
    15:00 -1°C° 0 mm 4 mps 771 mmHg 69%
    16:00 -1°C° 0 mm 4 mps 771 mmHg 72%
    17:00 -2°C° 0 mm 4 mps 771 mmHg 74%
    18:00 -2°C° 0 mm 4 mps 771 mmHg 75%
    19:00 -2°C° 0 mm 4 mps 771 mmHg 76%
    20:00 -2°C° 0 mm 4 mps 772 mmHg 77%
    21:00 -3°C° 0 mm 4 mps 771 mmHg 77%
    22:00 -3°C° 0 mm 4 mps 771 mmHg 78%
    23:00 -3°C° 0 mm 4 mps 771 mmHg 78%

    21 December, Thursday

    Time Temperature Precipitation Wind Pressure Humidity
    00:00 -3°C° 0 mm 4 mps 771 mmHg 78%
    01:00 -2°C° 0 mm 4 mps 771 mmHg 78%
    02:00 -2°C° 0 mm 4 mps 770 mmHg 78%
    03:00 -2°C° 0 mm 4 mps 770 mmHg 78%
    04:00 -2°C° 0 mm 4 mps 770 mmHg 78%
    05:00 -2°C° 0 mm 4 mps 769 mmHg 77%
    06:00 -2°C° 0 mm 4 mps 769 mmHg 77%
    07:00 -1°C° 0 mm 4 mps 769 mmHg 76%
    08:00 -1°C° 0 mm 4 mps 769 mmHg 75%
    09:00 0°C° 0.1 mm 5 mps 768 mmHg 74%
    10:00 +1°C° 0.1 mm 5 mps 768 mmHg 74%
    11:00 +1°C° 0.1 mm 6 mps 768 mmHg 73%
    12:00 +2°C° 0.1 mm 6 mps 768 mmHg 74%
    13:00 +2°C° 0.1 mm 6 mps 767 mmHg 75%
    14:00 +3°C° 0.1 mm 6 mps 767 mmHg 76%
    15:00 +3°C° 0 mm 6 mps 767 mmHg 78%
    16:00 +3°C° 0 mm 6 mps 767 mmHg 79%
    17:00 +3°C° 0 mm 6 mps 767 mmHg 81%
    18:00 +3°C° 0 mm 6 mps 767 mmHg 80%
    19:00 +3°C° 0 mm 6 mps 767 mmHg 80%
    20:00 +3°C° 0 mm 6 mps 767 mmHg 80%
    21:00 +3°C° 0 mm 6 mps 767 mmHg 80%
    22:00 +3°C° 0 mm 6 mps 767 mmHg 81%
    23:00 +3°C° 0 mm 6 mps 767 mmHg 81%
    Show more